REU9974 LFPG-FMEE

Flight info

Callsign REU9974
Flight time N/A
Altitude 35000
Route LANVI6D LANVI DCT DEVDI DCT RIPUS DCT RESIA DCT LAPAB DCT LABIN DCT ELGUS DCT AIOSA DCT NOSTO DCT SALUN N705 BOPIX N710 TAKRI P751 LXR M999 JDW G650 ULONI UG650 KONET DCT XADOX DCT DWA UN304 UVENA UVENA2R
Aircraft B77W/H-SDE1E2E3FGHIJ2J3J4J5M1RWXY/LB1D1

Departure

Time 2026-05-07 01:15
Airport Charles de Gaulle International Airport (LFPG)

Arrival

Time N/A
Airport Roland Garros Airport (FMEE)
Time Latitude Longitude Altitude Speed Heading
2026-05-07 00:13 49.00542 2.56176 358 ft 0 kts 166°
2026-05-07 00:53 49.00556 2.56171 358 ft 3 kts 166°
2026-05-07 00:53 49.00576 2.56160 358 ft 4 kts 136°
2026-05-07 00:53 49.00587 2.56135 358 ft 4 kts 99°
2026-05-07 00:53 49.00588 2.56096 358 ft 4 kts 84°
2026-05-07 00:54 49.00587 2.56076 358 ft 0 kts 83°
2026-05-07 00:57 49.00587 2.56085 366 ft 3 kts 83°
2026-05-07 00:58 49.00590 2.56122 358 ft 4 kts 83°
2026-05-07 00:58 49.00595 2.56161 365 ft 4 kts 73°
2026-05-07 00:58 49.00609 2.56213 364 ft 9 kts 71°
2026-05-07 00:58 49.00621 2.56318 358 ft 10 kts 84°
2026-05-07 00:59 49.00634 2.56534 358 ft 10 kts 86°
2026-05-07 00:59 49.00640 2.56642 365 ft 10 kts 85°
2026-05-07 00:59 49.00646 2.56750 358 ft 10 kts 85°
2026-05-07 01:00 49.00651 2.56858 366 ft 10 kts 86°
2026-05-07 01:00 49.00656 2.56966 364 ft 10 kts 86°
2026-05-07 01:00 49.00667 2.57071 365 ft 10 kts 77°
2026-05-07 01:00 49.00690 2.57173 358 ft 10 kts 58°
2026-05-07 01:01 49.00746 2.57239 359 ft 10 kts 44°
2026-05-07 01:01 49.00775 2.57336 366 ft 10 kts 78°
2026-05-07 01:01 49.00784 2.57445 360 ft 10 kts 84°
2026-05-07 01:01 49.00790 2.57553 366 ft 10 kts 86°
2026-05-07 01:02 49.00795 2.57658 364 ft 10 kts 86°
2026-05-07 01:02 49.00801 2.57770 360 ft 10 kts 85°
2026-05-07 01:02 49.00807 2.57879 367 ft 10 kts 85°
2026-05-07 01:02 49.00812 2.57987 367 ft 10 kts 87°
2026-05-07 01:03 49.00839 2.58083 367 ft 10 kts 35°
2026-05-07 01:03 49.00909 2.58098 360 ft 10 kts 358°
2026-05-07 01:03 49.00981 2.58091 360 ft 10 kts 356°
2026-05-07 01:03 49.01053 2.58083 366 ft 10 kts 355°
2026-05-07 01:04 49.01125 2.58075 360 ft 10 kts 356°
2026-05-07 01:04 49.01197 2.58066 360 ft 10 kts 355°
2026-05-07 01:04 49.01269 2.58057 365 ft 10 kts 355°
2026-05-07 01:04 49.01341 2.58048 367 ft 10 kts 355°
2026-05-07 01:05 49.01412 2.58037 360 ft 10 kts 354°
2026-05-07 01:05 49.01480 2.58058 367 ft 10 kts 43°
2026-05-07 01:05 49.01531 2.58136 367 ft 11 kts 22°
2026-05-07 01:05 49.01604 2.58148 362 ft 11 kts
2026-05-07 01:06 49.01678 2.58144 365 ft 11 kts 357°
2026-05-07 01:06 49.01753 2.58134 367 ft 11 kts 353°
2026-05-07 01:06 49.01826 2.58121 367 ft 11 kts 352°
2026-05-07 01:06 49.01899 2.58096 367 ft 11 kts 343°
2026-05-07 01:07 49.01966 2.58050 366 ft 11 kts 328°
2026-05-07 01:07 49.02021 2.57977 368 ft 11 kts 308°
2026-05-07 01:07 49.02061 2.57882 368 ft 11 kts 295°
2026-05-07 01:07 49.02083 2.57774 360 ft 11 kts 280°
2026-05-07 01:08 49.02087 2.57661 364 ft 11 kts 270°
2026-05-07 01:08 49.02084 2.57549 360 ft 11 kts 264°
2026-05-07 01:08 49.02076 2.57436 367 ft 11 kts 264°
2026-05-07 01:08 49.02069 2.57323 360 ft 11 kts 264°
2026-05-07 01:09 49.02062 2.57211 367 ft 11 kts 266°
2026-05-07 01:09 49.02057 2.57098 366 ft 11 kts 266°
2026-05-07 01:09 49.02051 2.56985 360 ft 11 kts 266°
2026-05-07 01:09 49.02046 2.56872 367 ft 11 kts 266°
2026-05-07 01:10 49.02040 2.56759 360 ft 11 kts 265°
2026-05-07 01:10 49.02035 2.56647 367 ft 11 kts 265°
2026-05-07 01:10 49.02029 2.56534 366 ft 11 kts 265°
2026-05-07 01:10 49.02027 2.56422 363 ft 11 kts 277°
2026-05-07 01:11 49.02068 2.56333 366 ft 11 kts 334°
2026-05-07 01:11 49.02141 2.56313 360 ft 11 kts 355°
2026-05-07 01:11 49.02156 2.56310 360 ft 3 kts 352°
2026-05-07 01:11 49.02234 2.56276 366 ft 16 kts 329°
2026-05-07 01:12 49.02298 2.56142 366 ft 15 kts 288°
2026-05-07 01:12 49.02335 2.55999 367 ft 15 kts 313°
2026-05-07 01:12 49.02432 2.55962 359 ft 15 kts
2026-05-07 01:12 49.02493 2.56074 367 ft 15 kts 66°
2026-05-07 01:13 49.02544 2.56141 365 ft 7 kts 21°
2026-05-07 01:13 49.02545 2.56141 359 ft 0 kts 20°
2026-05-07 01:13 49.02555 2.56146 359 ft 6 kts 16°
2026-05-07 01:13 49.02598 2.56152 364 ft 6 kts 353°
2026-05-07 01:14 49.02638 2.56124 366 ft 7 kts 316°
2026-05-07 01:14 49.02658 2.56054 366 ft 7 kts 278°
2026-05-07 01:14 49.02659 2.55935 361 ft 32 kts 268°
2026-05-07 01:14 49.02611 2.55048 363 ft 130 kts 265°
2026-05-07 01:15 49.02553 2.53929 362 ft 189 kts 266°
2026-05-07 01:15 49.02474 2.51813 981 ft 189 kts 269°
2026-05-07 01:15 49.02424 2.49981 1177 ft 167 kts 270°
2026-05-07 01:15 49.02401 2.47919 1108 ft 227 kts 272°
2026-05-07 01:16 49.02359 2.45507 2100 ft 214 kts 269°
2026-05-07 01:16 49.02286 2.43345 2238 ft 196 kts 271°
2026-05-07 01:16 49.02510 2.41222 2248 ft 215 kts 287°
2026-05-07 01:16 49.03162 2.39114 2338 ft 236 kts 317°
2026-05-07 01:17 49.04622 2.37863 2641 ft 247 kts 342°
2026-05-07 01:17 49.06245 2.36842 3424 ft 249 kts 334°
2026-05-07 01:17 49.07758 2.35600 4161 ft 255 kts 330°
2026-05-07 01:17 49.09308 2.34210 4915 ft 259 kts 330°
2026-05-07 01:18 49.10971 2.33222 5565 ft 262 kts 355°
2026-05-07 01:18 49.12714 2.33552 6245 ft 267 kts 21°
2026-05-07 01:18 49.14301 2.35212 6987 ft 273 kts 49°
2026-05-07 01:18 49.15211 2.37763 7681 ft 280 kts 76°
2026-05-07 01:19 49.15253 2.40734 8356 ft 285 kts 102°
2026-05-07 01:19 49.14684 2.43610 9030 ft 288 kts 109°
2026-05-07 01:19 49.14008 2.46520 9689 ft 293 kts 109°
2026-05-07 01:19 49.13322 2.49434 10356 ft 298 kts 109°
2026-05-07 01:20 49.12599 2.52530 10644 ft 318 kts 109°
2026-05-07 01:20 49.11835 2.55844 10860 ft 342 kts 109°
2026-05-07 01:20 49.11034 2.59370 11044 ft 365 kts 109°
2026-05-07 01:20 49.10751 2.60624 11174 ft 370 kts 109°
2026-05-07 01:21 49.10417 2.62098 11392 ft 374 kts 109°
2026-05-07 01:21 49.09559 2.65899 12020 ft 383 kts 109°
2026-05-07 01:21 49.08738 2.69801 12751 ft 388 kts 106°
2026-05-07 01:21 49.08029 2.73785 13557 ft 391 kts 104°
2026-05-07 01:22 49.07354 2.77826 14309 ft 396 kts 104°
2026-05-07 01:22 49.06675 2.81924 15009 ft 401 kts 104°
2026-05-07 01:22 49.05982 2.86057 15723 ft 405 kts 104°
2026-05-07 01:22 49.05272 2.90226 16438 ft 408 kts 104°
2026-05-07 01:23 49.04553 2.94395 17122 ft 412 kts 104°
2026-05-07 01:23 49.03807 2.98681 17788 ft 417 kts 104°
2026-05-07 01:23 49.03057 3.02969 18470 ft 420 kts 104°
2026-05-07 01:23 49.02309 3.07227 19129 ft 423 kts 105°
2026-05-07 01:24 49.01544 3.11576 19734 ft 427 kts 105°
2026-05-07 01:24 49.00766 3.15976 20327 ft 431 kts 105°
2026-05-07 01:24 48.99983 3.20401 20930 ft 435 kts 105°
2026-05-07 01:24 48.99193 3.24853 21522 ft 438 kts 105°
2026-05-07 01:25 48.98394 3.29342 22077 ft 438 kts 105°
2026-05-07 01:25 48.97606 3.33766 22065 ft 428 kts 105°
2026-05-07 01:25 48.96825 3.38146 22146 ft 432 kts 105°
2026-05-07 01:25 48.96558 3.39638 22256 ft 436 kts 105°
2026-05-07 01:26 48.96197 3.41655 22414 ft 440 kts 105°
2026-05-07 01:26 48.95384 3.46188 22797 ft 447 kts 105°
2026-05-07 01:26 48.94559 3.50771 23273 ft 451 kts 105°
2026-05-07 01:26 48.93745 3.55398 23816 ft 453 kts 102°
2026-05-07 01:27 48.93238 3.60122 24292 ft 456 kts 96°
2026-05-07 01:27 48.92999 3.64778 24772 ft 459 kts 93°
2026-05-07 01:27 48.92835 3.69805 25256 ft 461 kts 92°
2026-05-07 01:27 48.92672 3.74691 25725 ft 464 kts 93°
2026-05-07 01:28 48.92473 3.79595 26173 ft 466 kts 94°
2026-05-07 01:28 48.92238 3.84538 26616 ft 469 kts 94°
2026-05-07 01:28 48.91974 3.89493 27029 ft 471 kts 94°
2026-05-07 01:28 48.91697 3.94469 27439 ft 473 kts 94°
2026-05-07 01:29 48.91417 3.99402 27833 ft 476 kts 94°
2026-05-07 01:29 48.91133 4.04413 28218 ft 477 kts 94°
2026-05-07 01:29 48.90848 4.09449 28600 ft 479 kts 94°
2026-05-07 01:29 48.90570 4.14358 28933 ft 481 kts 94°
2026-05-07 01:30 48.90268 4.19572 29249 ft 481 kts 96°
2026-05-07 01:30 48.89582 4.24555 29437 ft 486 kts 110°
2026-05-07 01:30 48.88051 4.29126 29636 ft 486 kts 120°
2026-05-07 01:31 48.86718 4.32579 29864 ft 487 kts 120°
2026-05-07 01:31 48.85005 4.36993 30273 ft 485 kts 120°
2026-05-07 01:31 48.83305 4.41415 30691 ft 484 kts 120°
2026-05-07 01:31 48.81634 4.45848 31037 ft 484 kts 119°
2026-05-07 01:32 48.79982 4.50289 31361 ft 484 kts 119°
2026-05-07 01:32 48.78328 4.54742 31663 ft 484 kts 119°
2026-05-07 01:32 48.76684 4.59200 31966 ft 484 kts 119°
2026-05-07 01:32 48.75046 4.63646 32277 ft 484 kts 119°
2026-05-07 01:33 48.73399 4.68105 32557 ft 484 kts 119°
2026-05-07 01:33 48.71753 4.72552 32832 ft 484 kts 119°
2026-05-07 01:33 48.70099 4.77007 33113 ft 484 kts 119°
2026-05-07 01:33 48.68454 4.81430 33384 ft 484 kts 120°
2026-05-07 01:34 48.66792 4.85890 33618 ft 484 kts 120°
2026-05-07 01:34 48.65138 4.90320 33842 ft 485 kts 120°
2026-05-07 01:34 48.63479 4.94755 34077 ft 485 kts 120°
2026-05-07 01:34 48.61819 4.99187 34367 ft 483 kts 120°
2026-05-07 01:35 48.60161 5.03603 34629 ft 483 kts 120°
2026-05-07 01:35 48.58504 5.08014 34769 ft 485 kts 120°
2026-05-07 01:35 48.56837 5.12440 34853 ft 488 kts 120°
2026-05-07 01:36 48.55563 5.15818 34907 ft 490 kts 120°
2026-05-07 01:36 48.52177 5.24786 34964 ft 493 kts 121°
2026-05-07 01:37 48.48772 5.33759 34968 ft 491 kts 121°
2026-05-07 01:37 48.45380 5.42671 34971 ft 489 kts 121°
2026-05-07 01:38 48.42015 5.51492 34969 ft 488 kts 121°
2026-05-07 01:38 48.38604 5.60396 34973 ft 488 kts 121°
2026-05-07 01:39 48.35228 5.69186 34965 ft 488 kts 121°
2026-05-07 01:39 48.31818 5.78036 34962 ft 489 kts 121°
2026-05-07 01:40 48.28643 5.87082 34950 ft 490 kts 116°
2026-05-07 01:40 48.25772 5.96390 34947 ft 491 kts 116°
2026-05-07 01:41 48.24739 5.99755 34949 ft 491 kts 116°
2026-05-07 01:41 48.21844 6.09028 34948 ft 491 kts 116°
2026-05-07 01:42 48.18897 6.18267 34948 ft 491 kts 117°
2026-05-07 01:42 48.15933 6.27479 34948 ft 491 kts 117°
2026-05-07 01:43 48.12982 6.36615 34949 ft 491 kts 117°
2026-05-07 01:43 48.10003 6.45818 34951 ft 491 kts 117°
2026-05-07 01:44 48.07020 6.55005 34952 ft 490 kts 117°
2026-05-07 01:44 48.04037 6.64151 34954 ft 490 kts 117°
2026-05-07 01:45 48.01053 6.73263 34958 ft 490 kts 117°
2026-05-07 01:45 47.98068 6.82359 34947 ft 490 kts 118°
2026-05-07 01:46 47.97074 6.85376 34950 ft 490 kts 118°
2026-05-07 01:46 47.94081 6.94443 34952 ft 490 kts 118°
2026-05-07 01:47 47.91055 7.03583 34953 ft 491 kts 118°
2026-05-07 01:47 47.88022 7.12712 34952 ft 492 kts 119°
2026-05-07 01:48 47.84978 7.21838 34958 ft 491 kts 119°
2026-05-07 01:48 47.81934 7.30938 34953 ft 491 kts 119°
2026-05-07 01:49 47.78903 7.39965 34956 ft 491 kts 119°
2026-05-07 01:49 47.75879 7.48940 34960 ft 491 kts 119°
2026-05-07 01:50 47.72612 7.57634 34959 ft 486 kts 128°
2026-05-07 01:50 47.68674 7.65503 34962 ft 485 kts 130°
2026-05-07 01:51 47.67180 7.68450 34958 ft 486 kts 130°
2026-05-07 01:51 47.63166 7.76414 34958 ft 485 kts 129°
2026-05-07 01:52 47.59187 7.84364 34967 ft 485 kts 129°
2026-05-07 01:52 47.55169 7.92396 34966 ft 485 kts 129°
2026-05-07 01:53 47.51191 8.00325 34968 ft 485 kts 129°
2026-05-07 01:53 47.47188 8.08282 34977 ft 485 kts 130°
2026-05-07 01:54 47.43163 8.16254 34976 ft 484 kts 130°
2026-05-07 01:54 47.39134 8.24214 34974 ft 484 kts 130°
2026-05-07 01:55 47.35133 8.32092 34963 ft 484 kts 130°
2026-05-07 01:55 47.31107 8.39997 34972 ft 483 kts 131°
2026-05-07 01:56 47.29468 8.43211 34975 ft 483 kts 131°
2026-05-07 01:56 47.25420 8.51137 34969 ft 484 kts 131°
2026-05-07 01:57 47.21441 8.59128 34964 ft 485 kts 130°
2026-05-07 01:57 47.17490 8.67165 34961 ft 485 kts 130°
2026-05-07 01:58 47.13531 8.75171 34971 ft 484 kts 130°
2026-05-07 01:58 47.09561 8.83150 34990 ft 483 kts 131°
2026-05-07 01:59 47.05593 8.91092 34973 ft 483 kts 131°
2026-05-07 01:59 47.01620 8.99017 34976 ft 484 kts 131°
2026-05-07 02:00 46.97676 9.06869 34976 ft 483 kts 131°
2026-05-07 02:00 46.93690 9.14779 34967 ft 483 kts 131°
2026-05-07 02:01 46.92190 9.17754 34970 ft 482 kts 131°
2026-05-07 02:01 46.88191 9.25661 34971 ft 483 kts 131°
2026-05-07 02:02 46.84192 9.33547 34982 ft 483 kts 132°
2026-05-07 02:02 46.80185 9.41426 34971 ft 483 kts 132°
2026-05-07 02:03 46.76170 9.49293 34982 ft 483 kts 132°
2026-05-07 02:03 46.72170 9.57111 34978 ft 483 kts 132°
2026-05-07 02:04 46.68159 9.64940 34977 ft 482 kts 133°
2026-05-07 02:04 46.64138 9.72758 34961 ft 483 kts 133°
2026-05-07 02:05 46.60123 9.80535 34952 ft 482 kts 133°
2026-05-07 02:05 46.56098 9.88326 34971 ft 481 kts 133°
2026-05-07 02:06 46.55125 9.90204 34964 ft 481 kts 133°
2026-05-07 02:06 46.51100 9.97954 34960 ft 480 kts 133°
2026-05-07 02:07 46.47094 10.05668 34958 ft 479 kts 133°
2026-05-07 02:07 46.41386 10.17582 34957 ft 480 kts 130°
2026-05-07 02:08 46.37636 10.25554 34966 ft 480 kts 131°
2026-05-07 02:08 46.33836 10.33518 34972 ft 482 kts 131°
2026-05-07 02:09 46.30025 10.41442 34960 ft 484 kts 131°
2026-05-07 02:09 46.26178 10.49413 34958 ft 484 kts 131°
2026-05-07 02:10 46.22329 10.57374 34971 ft 483 kts 131°
2026-05-07 02:10 46.19750 10.62693 34974 ft 482 kts 131°
2026-05-07 02:11 46.16910 10.68533 34962 ft 483 kts 131°
2026-05-07 02:11 46.13062 10.76439 34965 ft 480 kts 131°
2026-05-07 02:12 46.09218 10.84316 34974 ft 479 kts 131°
2026-05-07 02:12 46.05387 10.92143 34967 ft 477 kts 131°
2026-05-07 02:13 46.01556 10.99941 34971 ft 477 kts 132°
2026-05-07 02:13 45.97721 11.07723 34967 ft 479 kts 132°
2026-05-07 02:14 45.93898 11.15462 34968 ft 480 kts 132°
2026-05-07 02:14 45.90023 11.23287 34949 ft 482 kts 132°
2026-05-07 02:15 45.86194 11.31003 34950 ft 482 kts 133°
2026-05-07 02:15 45.83618 11.36180 34948 ft 482 kts 133°
2026-05-07 02:16 45.80688 11.42053 34960 ft 481 kts 133°
2026-05-07 02:16 45.76805 11.49826 34965 ft 482 kts 133°
2026-05-07 02:17 45.72894 11.57631 34946 ft 482 kts 133°
2026-05-07 02:17 45.68985 11.65410 34946 ft 481 kts 133°
2026-05-07 02:18 45.65096 11.73132 34943 ft 479 kts 133°
2026-05-07 02:18 45.61201 11.80835 34937 ft 478 kts 133°
2026-05-07 02:19 45.57361 11.88416 34939 ft 477 kts 133°
2026-05-07 02:19 45.53478 11.96064 34943 ft 477 kts 133°
2026-05-07 02:20 45.49651 12.03837 34948 ft 479 kts 131°
2026-05-07 02:20 45.47172 12.09077 34951 ft 480 kts 131°
2026-05-07 02:21 45.44511 12.14713 34945 ft 481 kts 131°
2026-05-07 02:21 45.40779 12.22550 34935 ft 481 kts 131°
2026-05-07 02:22 45.37006 12.30405 34933 ft 481 kts 131°
2026-05-07 02:22 45.33244 12.38206 34943 ft 481 kts 131°
2026-05-07 02:23 45.29453 12.46044 34935 ft 481 kts 131°
2026-05-07 02:23 45.25659 12.53869 34932 ft 482 kts 131°
2026-05-07 02:24 45.21855 12.61702 34935 ft 482 kts 131°
2026-05-07 02:24 45.18040 12.69528 34948 ft 482 kts 131°
2026-05-07 02:25 45.14216 12.77354 34941 ft 483 kts 131°
2026-05-07 02:25 45.11686 12.82518 34940 ft 483 kts 131°
2026-05-07 02:26 45.08911 12.88176 34942 ft 483 kts 131°
2026-05-07 02:26 45.05076 12.95978 34937 ft 483 kts 131°
2026-05-07 02:27 45.01246 13.03744 34947 ft 483 kts 131°
2026-05-07 02:27 44.97165 13.11168 34934 ft 474 kts 141°
2026-05-07 02:28 44.92436 13.17541 34951 ft 471 kts 143°
2026-05-07 02:28 44.87661 13.23862 34959 ft 471 kts 143°
2026-05-07 02:29 44.82905 13.30207 34956 ft 472 kts 143°
2026-05-07 02:29 44.78154 13.36566 34962 ft 472 kts 143°
2026-05-07 02:30 44.73388 13.42938 34965 ft 472 kts 143°
2026-05-07 02:30 44.70241 13.47139 34961 ft 472 kts 143°
2026-05-07 02:31 44.66751 13.51788 34964 ft 472 kts 143°
2026-05-07 02:31 44.62017 13.58078 34961 ft 472 kts 143°
2026-05-07 02:32 44.57254 13.64390 34956 ft 472 kts 143°
2026-05-07 02:32 44.52477 13.70704 34965 ft 472 kts 143°
2026-05-07 02:33 44.47700 13.77004 34961 ft 472 kts 143°
2026-05-07 02:33 44.42924 13.83291 34962 ft 472 kts 143°
2026-05-07 02:34 44.38146 13.89565 34965 ft 471 kts 143°
2026-05-07 02:34 44.33378 13.95807 34968 ft 471 kts 143°
2026-05-07 02:35 44.28588 14.02071 34973 ft 471 kts 143°
2026-05-07 02:35 44.25485 14.06119 34973 ft 471 kts 143°
2026-05-07 02:36 44.21932 14.10746 34971 ft 471 kts 144°
2026-05-07 02:36 44.17235 14.16851 34973 ft 471 kts 144°
2026-05-07 02:37 44.12387 14.23136 34972 ft 471 kts 144°
2026-05-07 02:37 44.07606 14.29320 34974 ft 471 kts 143°
2026-05-07 02:38 44.02813 14.35507 34980 ft 471 kts 144°
2026-05-07 02:38 43.98019 14.41678 34981 ft 471 kts 144°
2026-05-07 02:39 43.93225 14.47834 34980 ft 471 kts 144°
2026-05-07 02:39 43.88422 14.53994 34980 ft 471 kts 144°
2026-05-07 02:40 43.83614 14.60143 34984 ft 471 kts 144°
2026-05-07 02:40 43.80425 14.64210 34978 ft 471 kts 144°
2026-05-07 02:41 43.76868 14.68742 34982 ft 471 kts 144°
2026-05-07 02:41 43.72050 14.74867 34981 ft 471 kts 144°
2026-05-07 02:42 43.67258 14.80949 34987 ft 472 kts 144°
2026-05-07 02:42 43.62398 14.87106 34981 ft 472 kts 144°
2026-05-07 02:43 43.57585 14.93188 34983 ft 473 kts 143°
2026-05-07 02:43 43.52834 14.99471 34984 ft 476 kts 140°
2026-05-07 02:44 43.48299 15.06122 34981 ft 477 kts 139°
2026-05-07 02:44 43.43764 15.12796 34999 ft 478 kts 139°
2026-05-07 02:45 43.39298 15.19325 34985 ft 478 kts 139°
2026-05-07 02:45 43.36210 15.23821 34984 ft 478 kts 139°
2026-05-07 02:46 43.32790 15.28779 35002 ft 478 kts 139°
2026-05-07 02:46 43.28249 15.35348 34989 ft 479 kts 139°
2026-05-07 02:47 43.23664 15.41972 34982 ft 478 kts 139°
2026-05-07 02:47 43.19075 15.48580 34978 ft 478 kts 139°
2026-05-07 02:48 43.14495 15.55173 34986 ft 478 kts 139°
2026-05-07 02:48 43.09922 15.61734 34986 ft 478 kts 139°
2026-05-07 02:49 43.05335 15.68300 35000 ft 478 kts 139°
2026-05-07 02:49 43.00745 15.74854 34997 ft 478 kts 139°
2026-05-07 02:50 42.96154 15.81390 34999 ft 478 kts 139°
2026-05-07 02:50 42.93854 15.84662 34999 ft 477 kts 139°
2026-05-07 02:51 42.90560 15.89344 35000 ft 477 kts 139°
2026-05-07 02:51 42.85234 15.96890 35002 ft 477 kts 139°
2026-05-07 02:52 42.80639 16.03383 35007 ft 477 kts 139°
2026-05-07 02:52 42.76027 16.09888 35007 ft 478 kts 139°
2026-05-07 02:53 42.71413 16.16380 35016 ft 478 kts 139°
2026-05-07 02:53 42.66790 16.22870 35028 ft 479 kts 139°
2026-05-07 02:54 42.62154 16.29366 35031 ft 480 kts 139°
2026-05-07 02:54 42.57507 16.35855 35022 ft 480 kts 139°
2026-05-07 02:55 42.52866 16.42326 35015 ft 480 kts 139°
2026-05-07 02:55 42.50536 16.45573 35018 ft 480 kts 139°
2026-05-07 02:56 42.47295 16.50081 35018 ft 480 kts 139°
2026-05-07 02:56 42.42638 16.56544 35018 ft 480 kts 139°
2026-05-07 02:57 42.37982 16.62991 35022 ft 479 kts 139°
2026-05-07 02:57 42.33338 16.69404 35021 ft 479 kts 139°
2026-05-07 02:58 42.28667 16.75834 35027 ft 479 kts 139°
2026-05-07 02:58 42.24015 16.82236 35039 ft 479 kts 139°
2026-05-07 02:59 42.19380 16.88596 35043 ft 479 kts 139°
2026-05-07 02:59 42.14714 16.94980 35049 ft 479 kts 139°
2026-05-07 03:00 42.10038 17.01371 35057 ft 479 kts 139°
2026-05-07 03:00 42.06914 17.05631 35056 ft 480 kts 139°
2026-05-07 03:01 42.03715 17.09983 35055 ft 480 kts 139°
2026-05-07 03:01 41.99044 17.16336 35065 ft 480 kts 140°
2026-05-07 03:02 41.94352 17.22667 35054 ft 476 kts 142°
2026-05-07 03:02 41.89198 17.28052 35051 ft 465 kts 153°
2026-05-07 03:03 41.83744 17.32668 35047 ft 464 kts 153°
2026-05-07 03:03 41.78306 17.37275 35045 ft 463 kts 153°
2026-05-07 03:04 41.72912 17.41874 35045 ft 463 kts 153°
2026-05-07 03:04 41.67489 17.46509 35046 ft 464 kts 153°
2026-05-07 03:05 41.62076 17.51133 35048 ft 465 kts 153°
2026-05-07 03:05 41.58448 17.54225 35047 ft 465 kts 153°
2026-05-07 03:06 41.54875 17.57266 35049 ft 466 kts 153°
2026-05-07 03:06 41.49426 17.61894 35046 ft 467 kts 153°
2026-05-07 03:07 41.43967 17.66522 35045 ft 467 kts 153°
2026-05-07 03:07 41.38517 17.71137 35043 ft 467 kts 153°
2026-05-07 03:08 41.33163 17.75660 35047 ft 467 kts 153°
2026-05-07 03:08 41.27640 17.80312 35057 ft 466 kts 153°
2026-05-07 03:09 41.22192 17.84892 35060 ft 465 kts 153°
2026-05-07 03:09 41.16747 17.89460 35063 ft 465 kts 153°
2026-05-07 03:10 41.11301 17.94022 35062 ft 465 kts 153°
2026-05-07 03:10 41.07658 17.97073 35067 ft 465 kts 153°
2026-05-07 03:11 41.04020 18.00111 35072 ft 465 kts 153°
2026-05-07 03:11 40.98566 18.04657 35072 ft 466 kts 152°
2026-05-07 03:12 40.93090 18.09212 35076 ft 468 kts 152°
2026-05-07 03:12 40.87591 18.13778 35079 ft 470 kts 152°
2026-05-07 03:13 40.82086 18.18338 35077 ft 472 kts 152°
2026-05-07 03:13 40.76544 18.22923 35083 ft 472 kts 152°
2026-05-07 03:14 40.70991 18.27510 35076 ft 472 kts 152°
2026-05-07 03:15 40.62698 18.34339 35075 ft 471 kts 152°
2026-05-07 03:15 40.57156 18.38892 35073 ft 470 kts 152°
2026-05-07 03:16 40.55095 18.40583 35074 ft 470 kts 152°
2026-05-07 03:16 40.49580 18.45100 35079 ft 469 kts 153°
2026-05-07 03:17 40.44070 18.49604 35069 ft 469 kts 153°
2026-05-07 03:17 40.38553 18.54104 35077 ft 469 kts 153°
2026-05-07 03:18 40.33054 18.58589 35092 ft 469 kts 153°
2026-05-07 03:18 40.27519 18.63083 35085 ft 470 kts 153°
2026-05-07 03:19 40.21991 18.67568 35090 ft 471 kts 153°
2026-05-07 03:19 40.16443 18.72060 35088 ft 471 kts 152°
2026-05-07 03:20 40.10952 18.76498 35083 ft 472 kts 152°
2026-05-07 03:20 40.05388 18.80986 35089 ft 473 kts 153°
2026-05-07 03:21 40.03240 18.82717 35080 ft 473 kts 153°
2026-05-07 03:21 39.97678 18.87190 35073 ft 474 kts 153°
2026-05-07 03:22 39.92075 18.91688 35071 ft 477 kts 153°
2026-05-07 03:22 39.86427 18.96217 35077 ft 480 kts 153°
2026-05-07 03:23 39.80778 19.00865 35078 ft 486 kts 148°
2026-05-07 03:23 39.75487 19.06263 35076 ft 491 kts 145°
2026-05-07 03:24 39.70181 19.11831 35072 ft 493 kts 145°